Location: Beekmeers
(50.8953°N, 3.6968°E)
Time: 17:12:01
(UTC+00:00)

H-2A R/B - Pass Details

Date: 15 August 2024
Orbit: 566 x 633 km, 98.4° (Epoch: 06 September)

Event Time Altitude Azimuth Distance (km) Brightness Sun altitude
Rises 23:23:04 0° 24° (NNE) 2,867 6.4 -25.2°
Reaches altitude 10° 23:25:30 10° 36° (NE) 1,971 5.2 -25.2°
Enters shadow 23:28:27 26° 78° (ENE) 1,227 3.6 -25.3°
